User: anonymous   Login
Location: Unspecified
(0.0000°N, 0.0000°E)
Time: 18:49:21
(UTC+00:00)
Language:

OAO 1 - Orbit

View from above orbital plane
View from above orbital plane
View from above satellite
View from above satellite

Ground track
Ground track

The orbit data is extracted from the following two-line orbital elements,

1  2142U 66031A   17145.93721046 +.00000011 +00000-0 +10638-4 0  9999
2  2142 035.0468 042.7720 0007692 284.1106 075.8727 14.33867511675783
Epoch (UTC): 25 May 2017 22:29:34
Eccentricity: 0.0007692
inclination: 35.0468°
perigee height: 773 km
apogee height: 784 km
right ascension of ascending node: 42.7720°
argument of perigee: 284.1106°
revolutions per day: 14.33867511
mean anomaly at epoch: 75.8727°
orbit number at epoch: 67578

The dashed part of the orbit path shows where the satellite is in the earth's shadow,  

DLR